CFB Cold Lake
CYOD : rendu visible

Aérodrome :











RETROUVEZ-NOUS SUR...

 
LOGIN :

S'inscrire | Disclaimer

   EN    FR    IT 

 









Légende :    VFR   VFR Marginal   IFR   IFR Intensif   IFR Très Intensif
Visi : 
Plafond : 
>= 8 km
>= 3000ft
5 à 8 km
1000 à 3000 ft
1500m à 5 km
500 à 1000 ft
800 à 1500m
200 à 500 ft
< 800m
< 200 ft
Symboles :   Orages  Brouillard  Fortes neiges  Fortes précipitations  Vent > 20 kt






- Altitude de l'aérodrome : 1775 ft
- Code IATA : YOD


CYOD - CFB Cold Lake

DERNIER METAR :
  • 300600Z 30009KT 15SM FEW100 10/M01 A3017 RMK AC2 SLP228

METARs EXPIRÉS :
  • 300500Z 29006KT 15SM FEW100 10/M02 A3015 RMK AC1 SLP221
  • 300400Z 30008KT 15SM SKC 10/M02 A3012 RMK SLP214

TAF TAF CYOD
Valide du 30 à 06h jusqu'au 01 à 06h UTC


300530Z 3006/0106 30008KT P6SM FEW100
FM300700 32008KT P6SM SCT040
TEMPO 3007/3020 BKN040
BECMG 3016/3018 34010G20KT
FM010000 02008KT P6SM FEW040 SCT250 RMK NXT FCST BY 301200Z
FIR CZEG / Amérique du Nord



MET'MAP, la Météo Aéronautique d'un coup d'oeil ! - Copyright ORBIFLY Décembre 2007 - Disclaimer

ORBIFLY MET'MAP TEAM :

Programmation & Développement : Alexandra Zaïnal
Sur une idée originale de : Baudouin d'Aumeries
Assistance à la programmation : Marc-Olivier Méhu
Soutien technique & logistique : Manuel Goepfert

Contact : metmap@orbifly.com




SOURCES & CREDITS :

   NOAA       Earth
Advisory